Location: Unspecified
(0.0000°N, 0.0000°E)
Time: 11:02:50
(UTC+00:00)

Envisat - Pass Details

Date: 19 March 2019
Orbit: 764 x 766 km, 98.2° (Epoch: 24 March)

Event Time Altitude Azimuth Distance (km) Brightness Sun altitude
Rises 20:16:57 0° 208° (SSW) 3,230 6.6 -32.3°
Reaches altitude 10° 20:21:27 10° 245° (WSW) 2,299 6.2 -33.4°
Maximum altitude 20:22:29 11° 257° (WSW) 2,258 6.2 -33.7°
Drops below altitude 10° 20:23:31 10° 269° (W) 2,297 6.3 -33.9°
Sets 20:28:01 0° 307° (NW) 3,218 6.9 -35.1°
